Tracking 27428 objects as of 31-May-2023
HD Live streaming from Space Station
objects crossing your sky now

METEOR M2-2

Track METEOR M2-2 now!
10-day predictions
METEOR M2-2 is classified as:


NORAD ID: 44387
Int'l Code: 2019-038A
Perigee: 818.6 km
Apogee: 820.9 km
Inclination: 98.8 °
Period: 101.1 minutes
Semi major axis: 7190 km
RCS: Unknown
Launch date: July 5, 2019
Source: Commonwealth of Independent States (former USSR) (CIS)
Launch site: VOSTOCHNY COSMODROME (VOSTO)

Uplink (MHz):
Downlink (MHz): 137.100/137.900
Beacon (MHz): 1700.000
Mode: 72kbps QPSK AHRPT
Call sign:
Status:

Your satellite tracking list
Your tracking list is empty




NASA's NSSDC Master Catalog

Two Line Element Set (TLE):
1 44387U 19038A   23151.16492422  .00000041  00000-0  37430-4 0  9995
2 44387  98.7747 115.1047 0001624  34.4500 325.6784 14.23783470202882
Source of the keplerian elements: AFSPC